K4SPB-4 Weather Reports


Display with metric or nautical units.
time (UTC)temp
F
wind
direction
speed
MPH
gust
MPH
rain 1hr
in
rain 24hr
in
rain mn
in
humidity
%
barometer
mb
20260510130028 68 294 0.0 1.0 0.00 0.00 0.00 86 1015.1
20260510125046 67 0.0 0.0 0.00 0.00 0.00 87 1015.0
20260510124043 67 267 0.0 1.0 0.00 0.00 0.00 88 1015.2
20260510123025 65 301 0.0 1.0 0.00 0.00 0.00 89 1014.9
20260510122019 64 0.0 0.0 0.00 0.00 0.00 90 1015.0
20260510121016 62 0.0 0.0 0.00 0.00 0.00 90 1014.8
20260510120049 61 0.0 0.0 0.00 0.00 0.00 91 1014.9
20260510115034 60 0.0 0.0 0.00 0.00 0.00 91 1014.9
20260510114030 60 0.0 0.0 0.00 0.00 0.00 92 1014.7
20260510113029 59 0.0 0.0 0.00 0.00 0.00 92 1014.6
20260510112026 59 0.0 0.0 0.00 0.00 0.00 92 1014.5
20260510111025 59 0.0 0.0 0.00 0.00 0.00 92 1014.5
20260510110021 59 0.0 0.0 0.00 0.00 0.00 92 1014.3
20260510105038 59 0.0 0.0 0.00 0.00 0.00 92 1014.0
20260510104015 60 0.0 0.0 0.00 0.00 0.00 91 1013.8
20260510103041 60 0.0 0.0 0.00 0.00 0.00 91 1013.8
20260510102032 60 0.0 0.0 0.00 0.00 0.00 91 1013.6
20260510101029 60 0.0 0.0 0.00 0.00 0.00 90 1013.6
20260510100047 60 0.0 0.0 0.00 0.00 0.00 90 1013.5
20260510095045 60 0.0 0.0 0.00 0.00 0.00 90 1013.4
20260510094023 60 0.0 0.0 0.00 0.00 0.00 89 1013.2
20260510093021 60 0.0 0.0 0.00 0.00 0.00 89 1013.2
20260510092019 60 0.0 0.0 0.00 0.00 0.00 88 1012.9
20260510091017 61 0.0 0.0 0.00 0.00 0.00 88 1012.7
20260510090034 61 0.0 0.0 0.00 0.00 0.00 87 1012.7
20260510085033 61 0.0 0.0 0.00 0.00 0.00 87 1012.7
20260510084050 61 0.0 0.0 0.00 0.00 0.00 86 1012.7
20260510083028 61 0.0 0.0 0.00 0.00 0.00 85 1012.7
20260510082026 62 0.0 0.0 0.00 0.00 0.00 84 1012.7
20260510081024 62 0.0 0.0 0.00 0.00 0.00 84 1012.5
20260510080042 63 0.0 0.0 0.00 0.00 0.00 83 1012.4
20260510075059 63 0.0 0.0 0.00 0.00 0.00 82 1012.5
20260510074016 64 0.0 0.0 0.00 0.00 0.00 81 1012.5
20260510073034 64 0.0 0.0 0.00 0.00 0.00 79 1012.6
20260510072034 65 0.0 0.0 0.00 0.00 0.00 82 1012.4
20260510071030 65 0.0 0.0 0.00 0.00 0.00 80 1012.5
20260510070029 65 0.0 0.0 0.00 0.00 0.00 78 1012.7
20260510065026 65 287 0.0 1.0 0.00 0.00 0.00 77 1012.5
20260510064024 63 0.0 0.0 0.00 0.00 0.00 78 1012.5
20260510063023 62 0.0 0.0 0.00 0.00 0.00 76 1012.3
20260510062021 62 0.0 0.0 0.00 0.00 0.00 75 1012.2
20260510061017 62 0.0 0.0 0.00 0.00 0.00 77 1012.2
20260510060035 62 0.0 0.0 0.00 0.00 0.00 77 1012.2
20260510055034 63 71 0.0 1.0 0.00 0.00 0.00 75 1012.1
20260510054031 63 0.0 0.0 0.00 0.00 0.00 73 1012.1
20260510053029 63 0.0 0.0 0.00 0.00 0.00 72 1012.1
20260510052026 63 0.0 0.0 0.00 0.00 0.00 72 1012.0
20260510051025 63 0.0 0.0 0.00 0.00 0.00 72 1011.9
20260510050040 63 0.0 0.0 0.00 0.00 0.00 71 1011.9
20260510045037 63 0.0 0.0 0.00 0.00 0.00 71 1012.1
20260510044035 64 0.0 0.0 0.00 0.00 0.00 70 1011.9
20260510043033 64 0.0 0.0 0.00 0.00 0.00 69 1011.9
20260510042031 65 0.0 0.0 0.00 0.00 0.00 68 1012.0
20260510041030 64 0.0 0.0 0.00 0.00 0.00 65 1012.1
20260510040026 64 0.0 0.0 0.00 0.00 0.00 70 1012.1
20260510035024 65 0.0 0.0 0.00 0.00 0.00 72 1012.1
20260510034029 65 0.0 0.0 0.00 0.00 0.00 71 1012.1
20260510033020 66 0.0 0.0 0.00 0.00 0.00 70 1012.1
20260510032018 66 0.0 0.0 0.00 0.00 0.00 69 1012.2
20260510031036 67 0.0 0.0 0.00 0.00 0.00 67 1012.2
20260510030033 67 0.0 0.0 0.00 0.00 0.00 65 1012.1
20260510025032 68 0.0 0.0 0.00 0.00 0.00 63 1012.0
20260510024029 68 0.0 0.0 0.00 0.00 0.00 62 1011.9
20260510023027 68 262 1.0 2.0 0.00 0.00 0.00 61 1011.7
20260510022026 69 0.0 0.0 0.00 0.00 0.00 58 1011.6
20260510021023 70 0.0 0.0 0.00 0.00 0.00 56 1011.6
20260510020020 71 0.0 0.0 0.00 0.00 0.00 56 1011.3
20260510015018 71 0.0 0.0 0.00 0.00 0.00 52 1011.0
20260510014056 72 0.0 0.0 0.00 0.00 0.00 51 1010.9
20260510013134 72 0.0 0.0 0.00 0.00 0.00 50 1010.9
20260510012032 73 0.0 0.0 0.00 0.00 0.00 48 1010.6
20260510011029 74 0.0 0.0 0.00 0.00 0.00 47 1010.5
20260510010029 75 0.0 0.0 0.00 0.00 0.00 45 1010.4
20260510005025 76 0.0 0.0 0.00 0.00 0.00 44 1010.2
20260510004022 77 0.0 0.0 0.00 0.00 0.00 42 1010.1
20260510003021 78 0.0 0.0 0.00 0.00 0.00 40 1010.0
20260510002018 78 0.0 0.0 0.00 0.00 0.00 39 1009.8
20260510001026 79 349 1.0 2.0 0.00 0.00 0.00 37 1009.7
20260510000035 79 0.0 0.0 0.00 0.00 0.00 37 1009.7
20260509235032 79 0.0 0.0 0.00 0.00 0.00 37 1009.6
20260509234029 79 0.0 0.0 0.00 0.00 0.00 36 1009.5
20260509233028 79 0.0 0.0 0.00 0.00 0.00 36 1009.4
20260509232025 79 0.0 0.0 0.00 0.00 0.00 35 1009.5
20260509231044 80 307 0.0 1.0 0.00 0.00 0.00 36 1009.4
20260509230019 80 350 1.0 1.0 0.00 0.00 0.00 34 1009.3
20260509225017 80 22 2.0 6.0 0.00 0.00 0.00 32 1009.3
20260509224036 80 11 2.0 8.0 0.00 0.00 0.00 31 1009.2
20260509223034 80 18 3.0 6.0 0.00 0.00 0.00 31 1009.0
20260509222035 80 11 2.0 4.0 0.00 0.00 0.00 31 1009.2
20260509221029 80 340 0.0 2.0 0.00 0.00 0.00 32 1009.2
20260509220026 81 352 0.0 1.0 0.00 0.00 0.00 33 1009.3
20260509215025 81 338 0.0 2.0 0.00 0.00 0.00 32 1009.4
20260509214022 81 203 1.0 3.0 0.00 0.00 0.00 32 1009.2
20260509213020 80 345 0.0 2.0 0.00 0.00 0.00 33 1009.4
20260509212025 80 16 3.0 8.0 0.00 0.00 0.00 32 1009.4
20260509211016 80 360 2.0 4.0 0.00 0.00 0.00 33 1009.4
20260509210034 80 346 1.0 4.0 0.00 0.00 0.00 34 1009.6
20260509205032 80 318 0.0 1.0 0.00 0.00 0.00 34 1009.5
20260509204029 80 6 1.0 3.0 0.00 0.00 0.00 33 1009.7
20260509203029 80 16 1.0 3.0 0.00 0.00 0.00 34 1009.6
20260509202025 79 11 1.0 3.0 0.00 0.00 0.00 33 1009.7
20260509201044 80 341 4.0 6.0 0.00 0.00 0.00 33 1009.8
20260509200021 80 51 1.0 4.0 0.00 0.00 0.00 37 1009.8
20260509195018 79 360 3.0 6.0 0.00 0.00 0.00 36 1009.8
20260509194037 79 331 1.0 6.0 0.00 0.00 0.00 37 1010.0
20260509193034 80 281 0.0 3.0 0.00 0.00 0.00 35 1010.0
20260509192031 79 311 1.0 2.0 0.00 0.00 0.00 35 1010.1
20260509191030 79 339 2.0 7.0 0.00 0.00 0.00 37 1010.1
20260509190026 79 345 2.0 9.0 0.00 0.00 0.00 37 1010.2
20260509185026 79 14 4.0 13.0 0.00 0.00 0.00 35 1010.1
20260509184023 79 35 2.0 4.0 0.00 0.00 0.00 37 1010.1
20260509183020 78 320 1.0 3.0 0.00 0.00 0.00 40 1010.3
20260509182018 78 346 2.0 6.0 0.00 0.00 0.00 41 1010.4
20260509181036 77 8 2.0 7.0 0.00 0.00 0.00 40 1010.5
20260509180034 78 295 2.0 4.0 0.00 0.00 0.00 38 1010.6
20260509175032 77 349 2.0 7.0 0.00 0.00 0.00 40 1010.6
20260509174030 76 15 3.0 8.0 0.00 0.00 0.00 44 1010.6
20260509173029 76 345 2.0 9.0 0.00 0.00 0.00 46 1010.6
20260509172024 76 342 3.0 7.0 0.00 0.00 0.00 48 1010.6
20260509171024 76 305 1.0 2.0 0.00 0.00 0.00 49 1010.6
20260509170021 75 254 2.0 4.0 0.00 0.00 0.00 49 1010.6
20260509165038 75 294 1.0 4.0 0.00 0.00 0.00 49 1010.7
20260509164016 75 346 2.0 4.0 0.00 0.00 0.00 52 1010.7
20260509163034 74 284 1.0 3.0 0.00 0.00 0.00 50 1010.6
20260509162031 74 29 2.0 6.0 0.00 0.00 0.00 53 1010.6
20260509161029 74 328 2.0 7.0 0.00 0.00 0.00 57 1010.6
20260509160027 73 268 3.0 4.0 0.00 0.00 0.00 57 1010.3
20260509155026 73 307 1.0 6.0 0.00 0.00 0.00 59 1010.4
20260509154024 72 307 2.0 6.0 0.00 0.00 0.00 60 1010.3
20260509153021 72 331 3.0 7.0 0.00 0.00 0.00 62 1010.2
20260509152020 72 9 3.0 10.0 0.00 0.00 0.00 63 1010.1
20260509151020 71 353 4.0 8.0 0.00 0.00 0.00 63 1010.3
20260509150035 71 294 2.0 6.0 0.00 0.00 0.00 64 1010.3
20260509145052 70 250 1.0 6.0 0.00 0.00 0.00 66 1010.3
20260509144031 70 298 2.0 4.0 0.00 0.00 0.00 67 1010.4
20260509143029 69 315 2.0 4.0 0.00 0.00 0.00 69 1010.5
20260509142026 69 287 1.0 3.0 0.00 0.00 0.00 70 1010.4
20260509141024 69 262 1.0 2.0 0.00 0.00 0.00 72 1010.4
20260509140535 68 298 2.0 3.0 0.00 0.00 0.00 73 1010.3
20260509135533 67 288 2.0 3.0 0.00 0.00 0.00 74 1010.1
20260509134550 67 290 1.0 2.0 0.00 0.00 0.00 76 1010.2
20260509133528 66 292 1.0 2.0 0.00 0.00 0.00 80 1010.1
20260509132526 65 277 2.0 2.0 0.00 0.00 0.00 80 1010.2
20260509131524 64 301 0.0 1.0 0.00 0.00 0.00 82 1010.0